Roseau, MN

7:40 AM CST on February 24, 2017 (GMT -0600)
Roseau Municipal-Billberg

Weather History for KROX - April, 2014

Change the Weather History Date:

Monday, April 14, 2014

  Actual Average Record
Temperature  
Mean Temperature 20 °F -  
Max Temperature 26 °F 50 °F 76 °F (1973)
Min Temperature 14 °F 29 °F -5 °F (1950)
Degree Days  
Heating Degree Days 45    
Moisture  
Dew Point 7 °F    
Average Humidity 54    
Maximum Humidity 68    
Minimum Humidity 40    
Precipitation  
Precipitation 0.00 in - - ()
Sea Level Pressure  
Sea Level Pressure 30.17 in    
Wind  
Wind Speed 12 mph (NNW)    
Max Wind Speed 18 mph    
Max Gust Speed 25 mph    
Visibility 10 miles    
Events      
Averages and records for this station are not official NWS values.
T = Trace of Precipitation, MM = Missing Value Source: NWS Daily Summary

Daily Weather History Graph

Daily Weather History Graph

Search for Another Location

Airport or City:

Trip Planner

Search our weather history database for the weather conditions in past years. The results will help you decide how hot, cold, wet, or windy it might be!

Date:

Astronomy

Apr. 14, 2014 Rise Set
Actual Time 6:33 AM CDT 8:13 PM CDT
Civil Twilight 6:00 AM CDT 8:46 PM CDT
Nautical Twilight 5:20 AM CDT 9:27 PM CDT
Astronomical Twilight 4:35 AM CDT 10:11 PM CDT
Moon 7:52 PM CDT (4/14) 6:10 AM CDT (4/14)
Length of Visible Light 14h 45m
Length of Day
13h 39m
Full, 100% of the Moon is Illuminated
Apr 14
Full
Apr 15
Full
Apr 22
Last Quarter
Apr 29
New
May 6
First Quarter

Hourly Weather History & Observations

Time (CDT) Temp. Windchill Dew Point Humidity Pressure Visibility Wind Dir Wind Speed Gust Speed Precip Events Conditions
12:14 AM 23.0 °F 11.1 °F 8.6 °F 54% 30.19 in 10.0 mi NNW 12.7 mph 21.9 mph N/A   Clear
12:34 AM 21.2 °F 7.8 °F 8.6 °F 58% 30.19 in 10.0 mi NNW 15.0 mph - N/A   Clear
12:54 AM 21.2 °F 8.9 °F 8.6 °F 58% 30.19 in 10.0 mi NNW 12.7 mph - N/A   Clear
1:14 AM 21.2 °F 10.9 °F 8.6 °F 58% 30.19 in 10.0 mi North 9.2 mph - N/A   Clear
1:34 AM 21.2 °F 10.9 °F 6.8 °F 54% 30.19 in 10.0 mi North 9.2 mph - N/A   Clear
1:55 AM 21.2 °F 11.7 °F 6.8 °F 54% 30.20 in 10.0 mi North 8.1 mph - N/A   Clear
2:14 AM 21.2 °F 11.7 °F 8.6 °F 58% 30.19 in 10.0 mi North 8.1 mph - N/A   Clear
2:35 AM 19.4 °F 10.4 °F 6.8 °F 58% 30.19 in 10.0 mi North 6.9 mph - N/A   Clear
2:54 AM 19.4 °F 12.8 °F 8.6 °F 63% 30.18 in 10.0 mi North 4.6 mph - N/A   Clear
3:14 AM 19.4 °F 12.8 °F 8.6 °F 63% 30.18 in 10.0 mi North 4.6 mph - N/A   Clear
3:34 AM 19.4 °F 11.5 °F 6.8 °F 58% 30.18 in 10.0 mi North 5.8 mph - N/A   Clear
3:54 AM 19.4 °F 8.6 °F 6.8 °F 58% 30.17 in 10.0 mi North 9.2 mph - N/A   Clear
4:14 AM 19.4 °F 8.6 °F 6.8 °F 58% 30.17 in 10.0 mi North 9.2 mph - N/A   Clear
4:34 AM 19.4 °F 9.5 °F 6.8 °F 58% 30.17 in 10.0 mi North 8.1 mph - N/A   Clear
4:54 AM 17.6 °F 9.3 °F 6.8 °F 63% 30.16 in 10.0 mi North 5.8 mph - N/A   Clear
5:15 AM 17.6 °F 6.4 °F 6.8 °F 63% 30.16 in 10.0 mi North 9.2 mph - N/A   Clear
5:34 AM 17.6 °F 5.0 °F 6.8 °F 63% 30.15 in 10.0 mi NNW 11.5 mph - N/A   Clear
5:54 AM 17.6 °F 5.7 °F 6.8 °F 63% 30.15 in 10.0 mi NNW 10.4 mph - N/A   Clear
6:14 AM 17.6 °F 4.3 °F 6.8 °F 63% 30.15 in 10.0 mi NNW 12.7 mph - N/A   Clear
6:34 AM 17.6 °F 3.7 °F 6.8 °F 63% 30.16 in 10.0 mi NNW 13.8 mph - N/A   Clear
7:14 AM 17.6 °F 5.0 °F 6.8 °F 63% 30.17 in 10.0 mi NNW 11.5 mph - N/A   Clear
7:34 AM 17.6 °F 5.7 °F 8.6 °F 68% 30.18 in 10.0 mi NNW 10.4 mph - N/A   Clear
7:55 AM 17.6 °F 5.7 °F 6.8 °F 63% 30.18 in 10.0 mi North 10.4 mph - N/A   Clear
8:14 AM 19.4 °F 9.5 °F 8.6 °F 63% 30.19 in 10.0 mi North 8.1 mph - N/A   Clear
8:34 AM 19.4 °F 6.6 °F 8.6 °F 63% 30.19 in 10.0 mi North 12.7 mph - N/A   Clear
8:55 AM 21.2 °F 8.3 °F 6.8 °F 54% 30.19 in 10.0 mi North 13.8 mph - N/A   Clear
9:14 AM 23.0 °F 11.1 °F 6.8 °F 50% 30.19 in 10.0 mi NNW 12.7 mph - N/A   Clear
9:34 AM 23.0 °F 11.7 °F 8.6 °F 54% 30.19 in 10.0 mi NNW 11.5 mph - N/A   Clear
9:55 AM 24.8 °F 12.4 °F 8.6 °F 50% 30.19 in 10.0 mi NNW 15.0 mph - N/A   Clear
10:14 AM 24.8 °F 11.9 °F 8.6 °F 50% 30.19 in 10.0 mi NNW 16.1 mph 21.9 mph N/A   Scattered Clouds
10:35 AM 24.8 °F 12.9 °F 8.6 °F 50% 30.19 in 10.0 mi NW 13.8 mph - N/A   Mostly Cloudy
10:54 AM 23.0 °F 9.6 °F 8.6 °F 54% 30.19 in 10.0 mi NW 16.1 mph 19.6 mph N/A   Mostly Cloudy
11:14 AM 24.8 °F 14.0 °F 10.4 °F 54% 30.19 in 10.0 mi NW 11.5 mph 18.4 mph N/A   Scattered Clouds
11:34 AM 24.8 °F 12.9 °F 8.6 °F 50% 30.19 in 10.0 mi WNW 13.8 mph 18.4 mph N/A   Scattered Clouds
11:54 AM 24.8 °F 12.4 °F 8.6 °F 50% 30.18 in 10.0 mi NW 15.0 mph 18.4 mph N/A   Scattered Clouds
12:15 PM 24.8 °F 12.9 °F 8.6 °F 50% 30.18 in 10.0 mi NW 13.8 mph 25.3 mph N/A   Mostly Cloudy
12:34 PM 24.8 °F 11.5 °F 10.4 °F 54% 30.17 in 10.0 mi NW 17.3 mph - N/A   Scattered Clouds
12:54 PM 23.0 °F 11.1 °F 10.4 °F 59% 30.17 in 10.0 mi NW 12.7 mph 19.6 mph N/A   Scattered Clouds
1:14 PM 24.8 °F 11.9 °F 8.6 °F 50% 30.16 in 10.0 mi NW 16.1 mph 23.0 mph N/A   Scattered Clouds
1:34 PM 24.8 °F 13.4 °F 8.6 °F 50% 30.17 in 10.0 mi NW 12.7 mph - N/A   Scattered Clouds
1:54 PM 26.6 °F 14.7 °F 10.4 °F 51% 30.16 in 10.0 mi WNW 15.0 mph - N/A   Scattered Clouds
2:14 PM 24.8 °F 12.4 °F 8.6 °F 50% 30.16 in 10.0 mi WNW 15.0 mph - N/A   Scattered Clouds
2:34 PM 24.8 °F 11.9 °F 8.6 °F 50% 30.16 in 10.0 mi WNW 16.1 mph 23.0 mph N/A   Scattered Clouds
2:54 PM 24.8 °F 12.4 °F 8.6 °F 50% 30.16 in 10.0 mi NW 15.0 mph - N/A   Scattered Clouds
3:13 PM 24.8 °F 11.5 °F 6.8 °F 46% 30.16 in 10.0 mi NW 17.3 mph 25.3 mph N/A   Scattered Clouds
3:34 PM 24.8 °F 11.1 °F 6.8 °F 46% 30.16 in 10.0 mi NW 18.4 mph 21.9 mph N/A   Clear
3:54 PM 24.8 °F 11.9 °F 6.8 °F 46% 30.16 in 10.0 mi WNW 16.1 mph 25.3 mph N/A   Clear
4:14 PM 24.8 °F 12.9 °F 3.2 °F 40% 30.15 in 10.0 mi WNW 13.8 mph 20.7 mph N/A   Clear
4:34 PM 24.8 °F 11.1 °F 5.0 °F 43% 30.15 in 10.0 mi NW 18.4 mph - N/A   Clear
4:54 PM 24.8 °F 12.9 °F 3.2 °F 40% 30.15 in 10.0 mi WNW 13.8 mph 23.0 mph N/A   Clear
5:14 PM 24.8 °F 11.1 °F 6.8 °F 46% 30.15 in 10.0 mi NW 18.4 mph - N/A   Scattered Clouds
5:34 PM 24.8 °F 11.5 °F 6.8 °F 46% 30.15 in 10.0 mi NW 17.3 mph 24.2 mph N/A   Scattered Clouds
5:54 PM 24.8 °F 11.1 °F 6.8 °F 46% 30.15 in 10.0 mi NW 18.4 mph 21.9 mph N/A   Clear
6:14 PM 24.8 °F 11.9 °F 6.8 °F 46% 30.15 in 10.0 mi WNW 16.1 mph 21.9 mph N/A   Clear
6:34 PM 23.0 °F 10.1 °F 6.8 °F 50% 30.16 in 10.0 mi NW 15.0 mph 20.7 mph N/A   Clear
6:54 PM 21.2 °F 6.8 °F 5.0 °F 50% 30.16 in 10.0 mi NW 17.3 mph - N/A   Clear
7:14 PM 21.2 °F 8.3 °F 3.2 °F 46% 30.16 in 10.0 mi NW 13.8 mph 20.7 mph N/A   Clear
7:34 PM 21.2 °F 7.3 °F 5.0 °F 50% 30.16 in 10.0 mi NW 16.1 mph 20.7 mph N/A   Clear
7:54 PM 19.4 °F 5.0 °F 3.2 °F 49% 30.17 in 10.0 mi NW 16.1 mph - N/A   Clear
8:14 PM 19.4 °F 5.5 °F 3.2 °F 49% 30.17 in 10.0 mi North 15.0 mph 20.7 mph N/A   Clear
8:34 PM 17.6 °F 3.7 °F 3.2 °F 53% 30.18 in 10.0 mi NNW 13.8 mph - N/A   Clear
8:54 PM 17.6 °F 2.2 °F 1.4 °F 49% 30.18 in 10.0 mi NNW 17.3 mph - N/A   Clear
9:14 PM 17.6 °F 4.3 °F 1.4 °F 49% 30.19 in 10.0 mi NNW 12.7 mph - N/A   Clear
9:34 PM 15.8 °F 4.2 °F 3.2 °F 58% 30.19 in 10.0 mi NNW 9.2 mph - N/A   Clear
9:54 PM 15.8 °F 2.1 °F 1.4 °F 53% 30.19 in 10.0 mi NNW 12.7 mph - N/A   Clear
10:14 PM 15.8 °F 4.2 °F 3.2 °F 58% 30.19 in 10.0 mi NNW 9.2 mph - N/A   Clear
10:34 PM 15.8 °F 3.4 °F 3.2 °F 58% 30.19 in 10.0 mi NNW 10.4 mph - N/A   Clear
10:55 PM 15.8 °F 3.4 °F 3.2 °F 58% 30.19 in 10.0 mi NW 10.4 mph - N/A   Clear
11:14 PM 15.8 °F 2.1 °F 3.2 °F 58% 30.19 in 10.0 mi NNW 12.7 mph - N/A   Clear
11:34 PM 14.0 °F 0.5 °F 1.4 °F 57% 30.19 in 10.0 mi NW 11.5 mph - N/A   Clear
11:54 PM 14.0 °F -0.2 °F 1.4 °F 57% 30.18 in 10.0 mi NNW 12.7 mph - N/A   Clear